KQ4PPF Weather Reports


time (UTC)temp
F
wind
direction
speed
knots
gust
knots
rain 1hr
in
rain 24hr
in
rain mn
in
humidity
%
barometer
mb
20260906124602 76 273 0.0 0.0 0.00 0.00 0.00 94 1013.3
20260906124056 75 273 0.0 0.0 0.00 0.00 0.00 95 1013.0
20260906123555 75 273 0.0 0.0 0.00 0.00 0.00 96 1012.9
20260906123051 74 273 0.0 0.0 0.00 0.00 0.00 97 1013.0
20260906122550 74 275 0.0 0.0 0.00 0.00 0.00 97 1012.9
20260906122047 74 275 0.0 0.0 0.00 0.00 0.00 97 1013.0
20260906121542 74 272 0.0 0.0 0.00 0.00 0.00 97 1013.1
20260906121039 73 273 0.0 0.0 0.00 0.00 0.00 97 1013.0
20260906120534 73 273 0.0 0.0 0.00 0.00 0.00 97 1012.9
20260906120031 73 275 0.0 0.0 0.00 0.00 0.00 97 1012.8
20260906115530 73 275 0.0 0.0 0.00 0.00 0.00 97 1012.5
20260906115025 73 275 0.0 0.0 0.00 0.00 0.00 97 1012.6
20260906114520 73 274 0.0 0.0 0.00 0.00 0.00 97 1012.6
20260906114016 73 274 0.0 0.0 0.00 0.00 0.00 97 1012.5
20260906113514 73 274 0.0 0.0 0.00 0.00 0.00 97 1012.4
20260906113010 73 274 0.0 0.0 0.00 0.00 0.00 97 1012.4
20260906112505 73 275 0.0 0.0 0.00 0.00 0.00 97 1012.3
20260906112001 73 275 0.0 0.0 0.00 0.00 0.00 97 1011.9
20260906111500 73 274 0.0 0.0 0.00 0.00 0.00 96 1011.6
20260906110955 73 273 0.0 0.0 0.00 0.00 0.00 96 1012.2
20260906110450 73 273 0.0 0.0 0.00 0.00 0.00 96 1011.8
20260906105949 73 274 0.0 0.0 0.00 0.00 0.00 96 1011.8
20260906105445 73 274 0.0 0.0 0.00 0.00 0.00 96 1011.8
20260906104941 73 275 0.0 0.0 0.00 0.00 0.00 96 1011.9
20260906104439 73 273 0.0 0.0 0.00 0.00 0.00 96 1011.9
20260906103939 73 275 0.0 0.0 0.00 0.00 0.00 96 1011.8
20260906103437 73 275 0.0 0.0 0.00 0.00 0.00 96 1011.8
20260906102932 73 275 0.0 0.0 0.00 0.00 0.00 96 1011.8
20260906102427 74 275 0.0 0.0 0.00 0.00 0.00 96 1011.9
20260906101922 74 273 0.0 0.0 0.00 0.00 0.00 95 1011.9
20260906101417 74 275 0.0 0.0 0.00 0.00 0.00 95 1011.8
20260906100913 74 275 0.0 0.0 0.00 0.00 0.00 95 1011.9
20260906100412 74 274 0.0 0.0 0.00 0.00 0.00 95 1011.9
20260906095907 74 274 0.0 0.0 0.00 0.00 0.00 95 1011.7
20260906095403 74 275 0.0 0.0 0.00 0.00 0.00 95 1012.2
20260906094901 74 274 0.0 0.0 0.00 0.00 0.00 96 1012.2
20260906094356 74 274 0.0 0.0 0.00 0.00 0.00 96 1012.0
20260906093847 74 275 0.0 0.0 0.00 0.00 0.00 96 1012.0
20260906093343 74 272 0.0 0.0 0.00 0.00 0.00 96 1011.6
20260906092837 74 273 0.0 0.0 0.00 0.00 0.00 96 1011.9
20260906092337 74 272 0.0 0.0 0.00 0.00 0.00 96 1011.9
20260906091833 74 275 0.0 0.0 0.00 0.00 0.00 96 1011.9
20260906091329 74 275 0.0 0.0 0.00 0.00 0.00 97 1012.0
20260906090820 74 275 0.0 0.0 0.00 0.00 0.00 97 1012.0
20260906090319 74 274 0.0 0.0 0.00 0.00 0.00 97 1012.6
20260906085818 74 275 0.0 0.0 0.00 0.00 0.00 97 1012.4
20260906085312 74 272 0.0 0.0 0.00 0.00 0.00 97 1012.4
20260906084807 74 273 0.0 0.0 0.00 0.00 0.00 97 1012.3
20260906084307 74 273 0.0 0.0 0.00 0.00 0.00 97 1012.7
20260906083802 74 272 0.0 0.0 0.00 0.00 0.00 97 1012.7
20260906083257 74 273 0.0 0.0 0.00 0.00 0.00 97 1012.6
20260906082751 74 272 0.0 0.0 0.00 0.00 0.00 97 1012.7
20260906082246 75 273 0.0 0.0 0.00 0.00 0.00 96 1012.4
20260906081743 75 273 0.0 0.0 0.00 0.00 0.00 96 1012.5
20260906081237 75 274 0.0 0.0 0.00 0.00 0.00 95 1012.7
20260906080733 75 274 0.0 0.0 0.00 0.00 0.00 95 1012.6
20260906080230 75 274 0.0 0.0 0.00 0.00 0.00 95 1012.4
20260906075723 75 274 0.0 0.0 0.00 0.00 0.00 95 1012.2
20260906075218 75 273 0.0 0.0 0.00 0.00 0.00 95 1012.0
20260906074714 75 273 0.0 0.0 0.00 0.00 0.00 95 1012.2
20260906074213 75 273 0.0 0.0 0.00 0.00 0.00 95 1012.2
20260906073708 75 274 0.0 0.0 0.00 0.00 0.00 95 1012.0
20260906073203 75 274 0.0 0.0 0.00 0.00 0.00 95 1011.8
20260906072658 75 274 0.0 0.0 0.00 0.00 0.00 94 1011.7
20260906072154 75 272 0.0 0.0 0.00 0.00 0.00 94 1011.6
20260906071650 75 266 0.0 0.0 0.00 0.00 0.00 93 1011.8
20260906071149 74 270 0.0 0.0 0.00 0.00 0.00 93 1012.0
20260906070646 74 284 0.0 0.0 0.00 0.00 0.00 94 1012.3
20260906070142 74 276 0.0 0.0 0.00 0.00 0.00 95 1011.7
20260906065641 74 277 0.0 0.0 0.00 0.00 0.00 95 1011.7
20260906065137 74 275 0.0 0.0 0.00 0.00 0.00 96 1011.8
20260906064632 74 272 0.0 0.0 0.00 0.00 0.00 96 1012.2
20260906064127 74 270 0.0 0.0 0.00 0.00 0.00 95 1012.4
20260906063622 74 274 0.0 0.0 0.00 0.00 0.00 95 1012.4
20260906063118 74 273 0.0 0.0 0.00 0.00 0.00 95 1012.4
20260906062614 74 273 0.0 0.0 0.00 0.00 0.00 95 1012.3
20260906062112 74 274 0.0 0.0 0.00 0.00 0.00 95 1012.4
20260906061609 74 272 0.0 0.0 0.00 0.00 0.00 95 1012.4
20260906061108 74 275 0.0 0.0 0.00 0.00 0.00 96 1012.4
20260906060605 74 275 0.0 0.0 0.00 0.00 0.00 96 1012.6
20260906055557 74 274 0.0 0.0 0.00 0.00 0.00 96 1012.4
20260906055052 73 274 0.0 0.0 0.00 0.00 0.00 96 1012.3
20260906054547 73 273 0.0 0.0 0.00 0.00 0.00 96 1012.0
20260906054042 74 270 0.0 0.0 0.00 0.00 0.00 96 1012.0
20260906053539 74 275 0.0 0.0 0.00 0.00 0.00 96 1012.2
20260906053034 74 273 0.0 0.0 0.00 0.00 0.00 96 1012.5
20260906052529 74 273 0.0 0.0 0.00 0.00 0.00 96 1012.2
20260906052026 74 274 0.0 0.0 0.00 0.00 0.00 96 1011.8
20260906051522 74 274 0.0 0.0 0.00 0.00 0.00 96 1012.0
20260906051017 74 275 0.0 0.0 0.00 0.00 0.00 96 1012.0
20260906050512 74 274 0.0 0.0 0.00 0.00 0.00 96 1012.3
20260906050007 74 271 0.0 0.0 0.00 0.00 0.00 96 1012.2
20260906045505 74 274 0.0 0.0 0.00 0.00 0.00 95 1012.3
20260906045001 74 272 0.0 0.0 0.00 0.00 0.00 95 1012.7
20260906044455 74 272 0.0 0.0 0.00 0.00 0.00 95 1012.8
20260906043952 74 274 0.0 0.0 0.00 0.00 0.00 95 1012.4
20260906043447 74 274 0.0 0.0 0.00 0.00 0.00 94 1012.8
20260906042943 74 274 0.0 0.0 0.00 0.00 0.00 94 1012.5
20260906042442 75 274 0.0 0.0 0.00 0.00 0.00 94 1012.6
20260906041936 75 272 0.0 0.0 0.00 0.00 0.00 94 1012.8
20260906041432 75 272 0.0 0.0 0.00 0.00 0.00 94 1012.8
20260906040927 75 272 0.0 0.0 0.00 0.00 0.00 94 1012.7
20260906040422 75 274 0.0 0.0 0.00 0.00 0.00 94 1012.6
20260906035917 75 274 0.0 0.0 0.00 0.00 0.00 94 1012.5
20260906035412 75 274 0.0 0.0 0.00 0.00 0.00 94 1012.4
20260906034908 75 274 0.0 0.0 0.00 0.00 0.00 94 1012.7
20260906034402 75 272 0.0 0.0 0.00 0.00 0.00 94 1012.6
20260906033858 75 272 0.0 0.0 0.00 0.00 0.00 94 1013.0
20260906033358 75 274 0.0 0.0 0.00 0.00 0.00 94 1012.9
20260906032854 75 273 0.0 0.0 0.00 0.00 0.00 93 1012.8
20260906032350 75 273 0.0 0.0 0.00 0.00 0.00 93 1012.8
20260906031844 75 271 0.0 0.0 0.00 0.00 0.00 93 1013.1
20260906031339 76 274 0.0 0.0 0.00 0.00 0.00 92 1012.9
20260906030839 76 274 0.0 0.0 0.00 0.00 0.00 92 1012.5
20260906030335 76 274 0.0 0.0 0.00 0.00 0.00 92 1013.0
20260906025829 76 274 0.0 0.0 0.00 0.00 0.00 92 1013.0
20260906025323 76 274 0.0 0.0 0.00 0.00 0.00 92 1012.7
20260906024822 76 274 0.0 0.0 0.00 0.00 0.00 92 1012.7
20260906024321 76 274 0.0 0.0 0.00 0.00 0.00 92 1012.3
20260906023817 76 269 0.0 0.0 0.00 0.00 0.00 92 1012.2
20260906023313 76 274 0.0 0.0 0.00 0.00 0.00 91 1012.4
20260906022808 76 275 0.0 0.0 0.00 0.00 0.00 91 1012.2
20260906022306 76 272 0.0 0.0 0.00 0.00 0.00 91 1012.0
20260906021759 76 272 0.0 0.0 0.00 0.00 0.00 91 1012.2
20260906021258 76 272 0.0 0.0 0.00 0.00 0.00 90 1012.2
20260906020752 77 272 0.0 0.0 0.00 0.00 0.00 90 1012.4
20260906020246 77 272 0.0 0.0 0.00 0.00 0.00 90 1012.0
20260906015741 77 272 0.0 0.0 0.00 0.00 0.00 90 1012.0
20260906015239 77 272 0.0 0.0 0.00 0.00 0.00 89 1012.2
20260906014734 77 271 0.0 0.0 0.00 0.00 0.00 89 1011.8
20260906014230 77 273 0.0 0.0 0.00 0.00 0.00 87 1011.8
20260906013726 77 274 0.0 0.0 0.00 0.00 0.00 87 1011.7
20260906013226 77 274 0.0 0.0 0.00 0.00 0.00 87 1011.7
20260906012721 78 274 0.0 0.0 0.00 0.00 0.00 87 1011.6
20260906012216 78 274 0.0 0.0 0.00 0.00 0.00 86 1011.5
20260906011711 78 274 0.0 0.0 0.00 0.00 0.00 86 1011.6
20260906011206 78 274 0.0 0.0 0.00 0.00 0.00 86 1011.6
20260906010701 78 274 0.0 0.0 0.00 0.00 0.00 86 1011.6
20260906010158 78 274 0.0 0.0 0.00 0.00 0.00 85 1011.8
20260906005657 78 273 0.0 0.0 0.00 0.00 0.00 84 1011.5
20260906005157 78 272 0.0 0.0 0.00 0.00 0.00 84 1011.4
20260906004655 78 272 0.0 0.0 0.00 0.00 0.00 84 1011.6
20260906004150 79 272 0.0 0.0 0.00 0.00 0.00 85 1011.6
20260906003646 79 274 0.0 0.0 0.00 0.00 0.00 83 1011.6
20260906003141 79 275 0.0 0.0 0.00 0.00 0.00 81 1011.4
20260906002636 80 275 0.0 0.0 0.00 0.00 0.00 81 1011.2
20260906002131 79 275 0.0 0.0 0.00 0.00 0.00 82 1011.3
20260906001627 80 275 0.0 0.0 0.00 0.00 0.00 82 1011.0
20260906001126 80 275 0.0 0.0 0.00 0.00 0.00 82 1011.2
20260906000622 80 274 0.0 0.0 0.00 0.00 0.00 80 1011.4
20260906000117 80 275 0.0 0.0 0.00 0.00 0.00 81 1011.6
20260905235616 81 275 0.0 0.0 0.00 0.00 0.00 80 1011.9
20260905235111 81 275 0.0 0.0 0.00 0.00 0.00 80 1011.5
20260905234607 81 274 0.0 0.0 0.00 0.00 0.00 79 1011.5
20260905234102 82 274 0.0 0.0 0.00 0.00 0.00 77 1011.5
20260905233601 82 274 0.0 0.0 0.00 0.00 0.00 77 1011.4
20260905233056 82 274 0.0 0.0 0.00 0.00 0.00 76 1011.6
20260905232551 82 274 0.0 0.0 0.00 0.00 0.00 75 1011.6
20260905232047 83 275 0.0 0.0 0.00 0.00 0.00 75 1011.4
20260905231542 83 274 0.0 0.0 0.00 0.00 0.00 75 1011.2
20260905231038 83 274 0.0 0.0 0.00 0.00 0.00 74 1011.2
20260905230537 83 274 0.0 0.0 0.00 0.00 0.00 74 1011.2
20260905230036 83 274 0.0 0.0 0.00 0.00 0.00 74 1011.2
20260905225531 83 274 0.0 0.0 0.00 0.00 0.00 73 1011.2
20260905225026 83 268 0.0 0.0 0.00 0.00 0.00 73 1011.3
20260905224521 83 267 0.0 0.0 0.00 0.00 0.00 75 1011.1
20260905224020 84 268 0.0 0.0 0.00 0.00 0.00 73 1011.1
20260905223518 84 268 0.0 0.0 0.00 0.00 0.00 73 1011.4
20260905223014 84 268 0.0 0.0 0.00 0.00 0.00 73 1011.3
20260905222508 85 274 0.0 0.0 0.00 0.00 0.00 70 1011.6
20260905222003 85 274 0.0 0.0 0.00 0.00 0.00 69 1011.7
20260905221459 85 277 0.0 0.0 0.00 0.00 0.00 68 1011.6
20260905220955 85 272 0.0 0.0 0.00 0.00 0.00 70 1011.6
20260905220451 85 273 0.0 0.0 0.00 0.00 0.00 70 1011.9
20260905215949 85 270 0.0 0.0 0.00 0.00 0.00 68 1011.9
20260905215446 86 270 0.0 0.0 0.00 0.00 0.00 68 1011.7
20260905214942 86 273 0.0 0.0 0.00 0.00 0.00 67 1011.9
20260905214437 86 270 0.0 0.0 0.00 0.00 0.00 65 1011.8
20260905213937 86 273 0.0 0.0 0.00 0.00 0.00 65 1012.0
20260905213434 86 272 0.0 0.0 0.00 0.00 0.00 67 1011.9
20260905212929 86 265 0.0 0.0 0.00 0.00 0.00 67 1012.0
20260905212424 86 272 0.0 0.0 0.00 0.00 0.00 68 1012.2
20260905211922 86 272 0.0 0.0 0.00 0.00 0.00 67 1011.9
20260905211418 86 273 0.0 0.0 0.00 0.00 0.00 67 1012.0
20260905210914 86 273 0.0 0.0 0.00 0.00 0.00 70 1012.0
20260905210409 85 271 0.0 0.0 0.00 0.00 0.00 69 1011.8
20260905205908 85 268 0.0 0.0 0.00 0.00 0.00 68 1012.3
20260905205357 85 271 0.0 0.0 0.00 0.00 0.00 67 1012.2
20260905204856 86 285 0.0 0.0 0.00 0.00 0.00 68 1012.4
20260905204352 85 272 0.0 0.0 0.00 0.00 0.00 68 1012.3
20260905203845 85 269 0.0 0.0 0.00 0.00 0.00 71 1012.4
20260905203341 85 271 0.0 0.0 0.00 0.00 0.00 69 1012.2
20260905202837 85 256 0.0 0.0 0.00 0.00 0.00 69 1012.5
20260905202331 85 268 0.0 0.0 0.00 0.00 0.00 69 1012.5
20260905201828 86 259 0.0 0.0 0.00 0.00 0.00 66 1012.7
20260905201322 86 275 0.0 0.0 0.00 0.00 0.00 66 1012.5
20260905200822 87 265 0.0 0.0 0.00 0.00 0.00 66 1012.2
20260905200318 88 292 0.0 0.0 0.00 0.00 0.00 66 1012.2
20260905195816 90 268 0.0 0.0 0.00 0.00 0.00 63 1011.9
20260905195311 94 275 0.0 0.0 0.00 0.00 0.00 57 1012.3
20260905194808 96 272 0.0 0.0 0.00 0.00 0.00 53 1011.7
20260905194306 96 263 0.0 0.0 0.00 0.00 0.00 52 1011.3
20260905193801 95 274 0.0 0.0 0.00 0.00 0.00 53 1011.3
20260905193256 95 270 0.0 0.0 0.00 0.00 0.00 53 1011.8
20260905192751 94 271 0.0 0.0 0.00 0.00 0.00 56 1011.8
20260905192247 94 271 0.0 0.0 0.00 0.00 0.00 54 1011.9
20260905191747 95 272 0.0 0.0 0.00 0.00 0.00 54 1011.8
20260905191245 95 272 0.0 0.0 0.00 0.00 0.00 51 1011.7
20260905190743 96 271 0.0 0.0 0.00 0.00 0.00 50 1012.0
20260905190242 95 271 0.0 0.0 0.00 0.00 0.00 53 1011.8
20260905185736 94 270 0.0 0.0 0.00 0.00 0.00 57 1011.9
20260905185230 94 271 0.0 0.0 0.00 0.00 0.00 55 1012.2
20260905184724 94 270 0.0 0.0 0.00 0.00 0.00 54 1012.2
20260905184224 93 271 0.0 0.0 0.00 0.00 0.00 57 1012.0
20260905183717 93 273 0.0 0.0 0.00 0.00 0.00 59 1012.0
20260905183213 92 271 0.0 0.0 0.00 0.00 0.00 61 1011.8
20260905182706 93 271 0.0 0.0 0.00 0.00 0.00 59 1012.3
20260905182206 94 265 0.0 0.0 0.00 0.00 0.00 57 1012.3
20260905181701 95 281 0.0 0.0 0.00 0.00 0.00 55 1012.3
20260905181200 98 257 0.0 0.0 0.00 0.00 0.00 53 1012.7
20260905180655 99 275 0.0 0.0 0.00 0.00 0.00 50 1012.6
20260905180151 100 295 0.0 0.0 0.00 0.00 0.00 52 1012.6
20260905175649 99 290 0.0 0.0 0.00 0.00 0.00 52 1012.7
20260905175145 97 270 0.0 0.0 0.00 0.00 0.00 55 1012.4
20260905174641 99 297 0.0 0.0 0.00 0.00 0.00 51 1012.7
20260905174136 97 274 0.0 0.0 0.00 0.00 0.00 55 1012.8
20260905173632 97 276 0.0 0.0 0.00 0.00 0.00 55 1012.9
20260905173128 98 240 0.0 0.0 0.00 0.00 0.00 52 1013.0
20260905172626 98 240 0.0 0.0 0.00 0.00 0.00 52 1013.0
20260905172121 97 265 0.0 0.0 0.00 0.00 0.00 53 1013.1
20260905171618 99 278 0.0 0.0 0.00 0.00 0.00 50 1013.2
20260905171113 99 278 0.0 0.0 0.00 0.00 0.00 50 1013.2
20260905170605 97 274 0.0 0.0 0.00 0.00 0.00 54 1013.4
20260905170059 97 271 0.0 0.0 0.00 0.00 0.00 52 1013.3
20260905165554 96 278 0.0 0.0 0.00 0.00 0.00 52 1013.1
20260905165043 95 306 0.0 0.0 0.00 0.00 0.00 52 1013.5
20260905150354 94 266 0.0 0.0 0.00 0.00 0.00 63 1013.9
20260905145851 94 266 0.0 0.0 0.00 0.00 0.00 63 1013.9
20260905145346 94 270 0.0 0.0 0.00 0.00 0.00 62 1014.3
20260905144845 92 275 0.0 0.0 0.00 0.00 0.00 65 1014.4
20260905144341 92 272 0.0 0.0 0.00 0.00 0.00 67 1014.2
20260905143839 92 267 0.0 0.0 0.00 0.00 0.00 67 1014.6
20260905143334 93 274 0.0 0.0 0.00 0.00 0.00 65 1014.3
20260905142834 92 273 0.0 0.0 0.00 0.00 0.00 67 1014.4
20260905142332 90 275 0.0 0.0 0.00 0.00 0.00 68 1014.3
20260905141829 92 267 0.0 0.0 0.00 0.00 0.00 67 1014.3
20260905141324 90 274 0.0 0.0 0.00 0.00 0.00 72 1014.6
20260905140820 89 273 0.0 0.0 0.00 0.00 0.00 73 1014.2
20260905140319 88 261 0.0 0.0 0.00 0.00 0.00 74 1014.5
20260905135818 88 273 0.0 0.0 0.00 0.00 0.00 73 1014.5
20260905135314 88 269 0.0 0.0 0.00 0.00 0.00 74 1014.5
20260905134809 87 271 0.0 0.0 0.00 0.00 0.00 76 1014.5
20260905134302 86 270 0.0 0.0 0.00 0.00 0.00 78 1014.2
20260905133757 89 268 0.0 0.0 0.00 0.00 0.00 74 1014.5
20260905133253 88 275 0.0 0.0 0.00 0.00 0.00 74 1014.8
20260905132752 86 273 0.0 0.0 0.00 0.00 0.00 79 1014.8
20260905132247 83 273 0.0 0.0 0.00 0.00 0.00 84 1014.9
20260905131742 84 274 0.0 0.0 0.00 0.00 0.00 85 1014.9
20260905131237 82 275 0.0 0.0 0.00 0.00 0.00 88 1014.8
20260905130731 81 274 0.0 0.0 0.00 0.00 0.00 88 1014.9
20260905130231 80 270 0.0 0.0 0.00 0.00 0.00 89 1014.9
20260905125726 80 275 0.0 0.0 0.00 0.00 0.00 91 1015.0
20260905125221 79 273 0.0 0.0 0.00 0.00 0.00 93 1015.0
20260905124718 78 274 0.0 0.0 0.00 0.00 0.00 94 1014.8